| time (UTC) | temp C | wind direction | speed KPH | gust KPH | rain 1hr cm | rain 24hr cm | rain mn cm | humidity % | barometer mb |
| 20260508040111 | 12 | 317 | 1.6 | 3.2 | 0.00 | 0.00 | 0.00 | 85 | 1009.4 |
| 20260508034518 | 12 | 317 | 0.0 | 1.6 | 0.00 | 0.00 | 0.00 | 85 | 1009.3 |
| 20260508033021 | 12 | 317 | 0.0 | 3.2 | 0.00 | 0.00 | 0.00 | 84 | 1009.4 |
| 20260508031609 | 12 | 15 | 1.6 | 4.8 | 0.00 | 0.00 | 0.00 | 84 | 1009.4 |
| 20260508030015 | 12 | 318 | 1.6 | 3.2 | 0.00 | 0.00 | 0.00 | 83 | 1009.4 |
| 20260508024510 | 12 | 318 | 1.6 | 4.8 | 0.00 | 0.03 | 0.00 | 82 | 1009.5 |
| 20260508023008 | 12 | 320 | 1.6 | 4.8 | 0.00 | 0.03 | 0.00 | 82 | 1009.6 |
| 20260508021608 | 13 | 320 | 1.6 | 4.8 | 0.00 | 0.03 | 0.00 | 81 | 1009.6 |
| 20260508020004 | 12 | 323 | 3.2 | 6.4 | 0.00 | 0.03 | 0.00 | 82 | 1009.8 |
| 20260508014505 | 12 | 314 | 1.6 | 4.8 | 0.00 | 0.13 | 0.00 | 82 | 1010.0 |
| 20260508013001 | 12 | 301 | 0.0 | 3.2 | 0.00 | 0.13 | 0.00 | 82 | 1010.1 |
| 20260508011600 | 12 | 301 | 0.0 | 3.2 | 0.00 | 0.13 | 0.00 | 82 | 1010.2 |
| 20260508010109 | 12 | 301 | 0.0 | 1.6 | 0.00 | 0.13 | 0.00 | 82 | 1010.3 |
| 20260508004556 | 12 | 301 | 0.0 | 3.2 | 0.00 | 0.13 | 0.00 | 81 | 1010.3 |
| 20260508003103 | 12 | 301 | 0.0 | 3.2 | 0.00 | 0.13 | 0.00 | 80 | 1010.4 |
| 20260508001558 | 13 | 335 | 3.2 | 4.8 | 0.00 | 0.13 | 0.00 | 81 | 1010.5 |
| 20260508000057 | 12 | 337 | 1.6 | 3.2 | 0.00 | 0.13 | 0.00 | 81 | 1010.7 |
| 20260507234555 | 12 | 337 | 0.0 | 1.6 | 0.00 | 0.13 | 0.00 | 81 | 1010.8 |
| 20260507233054 | 13 | 337 | 0.0 | 1.6 | 0.00 | 0.13 | 0.00 | 79 | 1010.9 |
| 20260507231556 | 13 | 327 | 3.2 | 6.4 | 0.00 | 0.13 | 0.00 | 79 | 1011.2 |
| 20260507230109 | 13 | 340 | 3.2 | 6.4 | 0.00 | 0.13 | 0.00 | 78 | 1011.4 |
| 20260507224553 | 13 | 360 | 3.2 | 4.8 | 0.00 | 0.13 | 0.00 | 79 | 1011.5 |
| 20260507223147 | 13 | 360 | 1.6 | 4.8 | 0.00 | 0.13 | 0.00 | 79 | 1011.7 |
| 20260507221551 | 13 | 355 | 1.6 | 4.8 | 0.00 | 0.13 | 0.00 | 77 | 1011.7 |
| 20260507220017 | 14 | 360 | 1.6 | 4.8 | 0.00 | 0.13 | 0.00 | 75 | 1011.5 |
| 20260507214516 | 15 | 327 | 1.6 | 4.8 | 0.00 | 0.13 | 0.00 | 73 | 1011.5 |
| 20260507213016 | 15 | 344 | 1.6 | 8.0 | 0.00 | 0.13 | 0.00 | 73 | 1011.5 |
| 20260507211616 | 14 | 360 | 1.6 | 3.2 | 0.00 | 0.13 | 0.00 | 74 | 1011.6 |
| 20260507210018 | 15 | 360 | 0.0 | 3.2 | 0.00 | 0.13 | 0.00 | 71 | 1011.6 |
| 20260507204518 | 15 | 360 | 1.6 | 4.8 | 0.00 | 0.13 | 0.00 | 70 | 1011.6 |
| 20260507203029 | 15 | 360 | 0.0 | 1.6 | 0.00 | 0.13 | 0.00 | 73 | 1011.6 |
| 20260507201622 | 15 | 360 | 1.6 | 4.8 | 0.00 | 0.13 | 0.00 | 71 | 1011.7 |
| 20260507200033 | 15 | 360 | 0.0 | 1.6 | 0.00 | 0.13 | 0.00 | 73 | 1011.7 |
| 20260507194517 | 15 | 360 | 1.6 | 3.2 | 0.00 | 0.13 | 0.00 | 74 | 1011.4 |
| 20260507193046 | 15 | 360 | 1.6 | 3.2 | 0.00 | 0.13 | 0.00 | 75 | 1011.4 |
| 20260507191539 | 15 | 360 | 0.0 | 1.6 | 0.00 | 0.13 | 0.00 | 73 | 1011.4 |
| 20260507190040 | 16 | 360 | 1.6 | 4.8 | 0.00 | 0.13 | 0.00 | 73 | 1011.2 |
| 20260507184538 | 16 | 360 | 1.6 | 3.2 | 0.00 | 0.13 | 0.00 | 75 | 1011.3 |
| 20260507183042 | 16 | 355 | 1.6 | 3.2 | 0.00 | 0.13 | 0.00 | 73 | 1011.4 |
| 20260507181541 | 17 | 355 | 1.6 | 3.2 | 0.00 | 0.13 | 0.00 | 71 | 1011.4 |
| 20260507180041 | 18 | 329 | 0.0 | 4.8 | 0.00 | 0.13 | 0.00 | 67 | 1011.3 |
| 20260507174551 | 18 | 338 | 1.6 | 6.4 | 0.00 | 0.13 | 0.00 | 65 | 1011.2 |
| 20260507173041 | 19 | 304 | 0.0 | 0.0 | 0.00 | 0.13 | 0.00 | 64 | 1011.2 |
| 20260507171547 | 20 | 294 | 0.0 | 0.0 | 0.00 | 0.13 | 0.00 | 63 | 1011.0 |
| 20260507170045 | 20 | 288 | 0.0 | 0.0 | 0.00 | 0.13 | 0.00 | 64 | 1011.1 |
| 20260507164540 | 18 | 323 | 0.0 | 3.2 | 0.00 | 0.13 | 0.00 | 68 | 1011.0 |
| 20260507163035 | 18 | 323 | 0.0 | 3.2 | 0.00 | 0.13 | 0.00 | 65 | 1011.0 |
| 20260507161540 | 18 | 348 | 0.0 | 8.0 | 0.00 | 0.13 | 0.00 | 63 | 1010.9 |
| 20260507160037 | -17 | 0.0 | 0.0 | 0.00 | 0.13 | 0.00 | 1011.1 | ||
| 20260507154530 | -17 | 0.0 | 0.0 | 0.00 | 0.13 | 0.00 | 1011.1 | ||
| 20260507153028 | -17 | 0.0 | 0.0 | 0.00 | 0.13 | 0.00 | 1011.2 | ||
| 20260507151525 | -17 | 0.0 | 0.0 | 0.00 | 0.13 | 0.00 | 1011.1 | ||
| 20260507150019 | -17 | 0.0 | 0.0 | 0.00 | 0.13 | 0.00 | 1011.1 | ||
| 20260507144525 | 21 | 83 | 4.8 | 11.3 | 0.00 | 0.13 | 0.00 | 52 | 1011.2 |
| 20260507143013 | 21 | 109 | 1.6 | 9.7 | 0.00 | 0.13 | 0.00 | 55 | 1011.5 |
| 20260507141512 | 21 | 162 | 0.0 | 0.0 | 0.00 | 0.13 | 0.00 | 54 | 1011.6 |
| 20260507140011 | 22 | 199 | 0.0 | 0.0 | 0.00 | 0.13 | 0.00 | 53 | 1011.8 |
| 20260507134510 | 20 | 207 | 0.0 | 0.0 | 0.00 | 0.13 | 0.00 | 59 | 1012.1 |
| 20260507133010 | 20 | 136 | 0.0 | 0.0 | 0.00 | 0.13 | 0.00 | 57 | 1012.2 |
| 20260507131521 | 20 | 163 | 4.8 | 14.5 | 0.00 | 0.13 | 0.00 | 59 | 1012.3 |
| 20260507130009 | 21 | 138 | 3.2 | 14.5 | 0.00 | 0.13 | 0.00 | 56 | 1012.4 |
| 20260507124508 | 21 | 180 | 4.8 | 16.1 | 0.00 | 0.13 | 0.00 | 56 | 1012.4 |
| 20260507123012 | 22 | 173 | 1.6 | 14.5 | 0.00 | 0.13 | 0.00 | 57 | 1012.3 |
| 20260507121510 | 21 | 186 | 1.6 | 8.0 | 0.00 | 0.13 | 0.00 | 52 | 1012.3 |
| 20260507120008 | 21 | 105 | 1.6 | 6.4 | 0.00 | 0.13 | 0.00 | 53 | 1012.3 |
| 20260507114507 | 21 | 273 | 0.0 | 0.0 | 0.00 | 0.13 | 0.00 | 60 | 1012.4 |
| 20260507113004 | 21 | 248 | 1.6 | 6.4 | 0.00 | 0.13 | 0.00 | 56 | 1012.5 |
| 20260507111507 | 21 | 140 | 1.6 | 9.7 | 0.00 | 0.13 | 0.00 | 57 | 1012.5 |
| 20260507110059 | 20 | 187 | 3.2 | 9.7 | 0.00 | 0.13 | 0.00 | 59 | 1012.7 |
| 20260507104556 | 19 | 147 | 6.4 | 14.5 | 0.00 | 0.13 | 0.00 | 65 | 1012.9 |
| 20260507103052 | 19 | 159 | 1.6 | 6.4 | 0.00 | 0.13 | 0.00 | 64 | 1012.9 |
| 20260507101558 | 19 | 169 | 3.2 | 11.3 | 0.00 | 0.13 | 0.00 | 65 | 1013.1 |
| 20260507100054 | -17 | 0.0 | 0.0 | 0.00 | 0.13 | 0.00 | 1013.3 | ||
| 20260507094541 | 18 | 119 | 0.0 | 0.0 | 0.00 | 0.13 | 0.00 | 70 | 1013.2 |
| 20260507093039 | 18 | 192 | 0.0 | 0.0 | 0.00 | 0.13 | 0.00 | 73 | 1013.2 |
| 20260507091538 | 17 | 148 | 0.0 | 14.5 | 0.00 | 0.13 | 0.00 | 72 | 1013.4 |
| 20260507090036 | 18 | 155 | 0.0 | 12.9 | 0.00 | 0.13 | 0.00 | 73 | 1013.3 |
| 20260507084541 | 17 | 183 | 3.2 | 11.3 | 0.00 | 0.13 | 0.00 | 78 | 1013.3 |
| 20260507083046 | 17 | 183 | 3.2 | 9.7 | 0.00 | 0.13 | 0.00 | 76 | 1013.4 |
| 20260507081530 | 16 | 175 | 3.2 | 11.3 | 0.00 | 0.13 | 0.00 | 78 | 1013.4 |
| 20260507080028 | 16 | 154 | 3.2 | 11.3 | 0.00 | 0.13 | 0.00 | 81 | 1013.4 |
| 20260507074525 | 15 | 168 | 3.2 | 11.3 | 0.00 | 0.13 | 0.00 | 82 | 1013.4 |
| 20260507073022 | 16 | 135 | 4.8 | 12.9 | 0.00 | 0.13 | 0.00 | 83 | 1013.3 |
| 20260507071518 | 15 | 158 | 1.6 | 9.7 | 0.00 | 0.13 | 0.00 | 85 | 1013.2 |
| 20260507070016 | 15 | 198 | 4.8 | 9.7 | 0.00 | 0.13 | 0.00 | 86 | 1013.3 |
| 20260507064511 | 15 | 172 | 3.2 | 8.0 | 0.00 | 0.15 | 0.00 | 90 | 1013.2 |
| 20260507063011 | 13 | 169 | 1.6 | 4.8 | 0.00 | 0.15 | 0.00 | 91 | 1013.2 |
| 20260507061507 | 13 | 202 | 1.6 | 6.4 | 0.00 | 0.15 | 0.00 | 92 | 1013.2 |
| 20260507060014 | 13 | 159 | 3.2 | 9.7 | 0.00 | 0.15 | 0.00 | 92 | 1013.2 |
| 20260507054502 | 12 | 183 | 3.2 | 6.4 | 0.00 | 0.15 | 0.15 | 93 | 1013.0 |
| 20260507053100 | 12 | 74 | 8.0 | 12.9 | 0.00 | 0.15 | 0.15 | 93 | 1012.8 |
| 20260507051605 | 12 | 146 | 1.6 | 8.0 | 0.00 | 0.15 | 0.15 | 93 | 1012.9 |
| 20260507050100 | 12 | 111 | 1.6 | 6.4 | 0.00 | 0.15 | 0.15 | 93 | 1012.8 |
| 20260507044558 | 12 | 130 | 0.0 | 6.4 | 0.00 | 0.15 | 0.15 | 93 | 1012.7 |
| 20260507043103 | 12 | 96 | 3.2 | 6.4 | 0.00 | 0.15 | 0.15 | 93 | 1012.6 |
| 20260507041558 | 11 | 113 | 3.2 | 8.0 | 0.00 | 0.15 | 0.15 | 93 | 1012.5 |